EW5920 Weather Reports


time (UTC)temp
F
wind
direction
speed
knots
gust
knots
rain 1hr
in
rain 24hr
in
rain mn
in
humidity
%
barometer
mb
20260505123336 54 278 0.0 0.0 0.00 0.00 0.00 84 1014.9
20260505122320 54 278 0.0 0.0 0.00 0.00 0.00 84 1014.9
20260505120213 54 291 0.0 1.7 0.00 0.00 0.00 84 1014.7
20260505115142 54 221 0.0 1.7 0.00 0.00 0.00 84 1014.7
20260505114147 54 197 0.0 0.0 0.00 0.00 0.00 84 1014.8
20260505113151 54 145 0.0 1.7 0.00 0.00 0.00 84 1014.7
20260505111035 54 185 0.0 1.7 0.00 0.00 0.00 84 1014.5
20260505102019 54 168 0.0 0.0 0.00 0.00 0.00 84 1014.3
20260505101009 54 166 0.0 0.0 0.00 0.00 0.00 84 1014.3
20260505100026 54 194 0.0 0.0 0.00 0.00 0.00 84 1014.3
20260505093858 54 170 0.0 0.0 0.00 0.00 0.00 84 1014.2
20260505092842 54 148 0.0 0.0 0.00 0.00 0.00 85 1014.1
20260505091901 54 148 0.0 0.0 0.00 0.00 0.00 84 1014.0
20260505090853 54 193 0.0 0.9 0.00 0.00 0.00 84 1013.9
20260505085840 53 207 0.0 0.0 0.00 0.00 0.00 85 1014.0
20260505084843 53 207 0.0 0.9 0.00 0.00 0.00 84 1014.0
20260505082705 53 273 0.0 0.0 0.00 0.00 0.00 86 1013.8
20260505081709 52 285 0.0 0.0 0.00 0.00 0.00 86 1013.7
20260505080722 52 129 0.0 0.0 0.00 0.00 0.00 85 1013.8
20260505075729 52 221 0.0 2.6 0.00 0.00 0.00 85 1013.7
20260505074735 52 188 0.0 0.0 0.00 0.00 0.00 85 1013.7
20260505073749 53 188 0.0 0.0 0.00 0.00 0.00 86 1013.6
20260505071602 53 188 0.0 0.0 0.00 0.00 0.00 84 1013.5
20260505070626 53 198 0.0 0.0 0.00 0.00 0.00 84 1013.3
20260505065551 53 140 0.0 0.0 0.00 0.00 0.00 83 1013.2
20260505064556 54 284 0.0 0.0 0.00 0.00 0.00 83 1013.1
20260505063530 54 272 0.0 0.0 0.00 0.00 0.00 82 1013.2
20260505061424 55 156 0.0 3.5 0.00 0.00 0.00 81 1013.0
20260505060352 55 241 0.0 2.6 0.00 0.00 0.00 81 1013.0
20260505055402 55 278 0.0 2.6 0.00 0.00 0.00 81 1012.9
20260505054359 55 224 0.0 0.0 0.00 0.00 0.00 81 1013.0
20260505053331 55 288 0.0 0.0 0.00 0.00 0.00 80 1013.0
20260505052348 56 291 0.0 1.7 0.00 0.00 0.00 79 1012.9
20260505051349 56 285 0.0 1.7 0.00 0.00 0.00 79 1012.8
20260505041131 58 290 0.0 0.9 0.00 0.00 0.00 78 1012.0
20260505040133 59 288 0.0 0.9 0.00 0.00 0.00 77 1011.7
20260505035104 59 336 0.0 0.0 0.00 0.00 0.00 76 1011.7
20260505034049 60 257 0.0 0.0 0.00 0.00 0.00 75 1011.6
20260505033106 60 298 0.0 0.0 0.00 0.00 0.00 74 1011.3
20260505030923 62 205 0.0 0.0 0.00 0.00 0.00 71 1011.0
20260505025852 63 293 0.9 2.6 0.00 0.00 0.00 71 1010.8
20260505023703 65 294 0.9 4.3 0.00 0.00 0.00 68 1010.4
20260505022713 66 280 0.9 3.5 0.00 0.00 0.00 66 1010.4
20260505021715 68 285 0.9 2.6 0.00 0.00 0.00 65 1010.3
20260505015607 70 276 0.9 2.6 0.00 0.00 0.00 64 1010.3
20260505014615 70 272 0.9 2.6 0.00 0.00 0.00 63 1010.2
20260505013639 71 199 0.0 3.5 0.00 0.00 0.00 62 1010.2
20260505012646 72 284 0.9 3.5 0.00 0.00 0.00 60 1010.3
20260505011702 73 202 0.0 2.6 0.00 0.00 0.00 58 1010.3
20260505005506 74 287 0.9 2.6 0.00 0.00 0.00 57 1010.4
20260505004437 73 271 0.9 2.6 0.00 0.00 0.00 58 1010.4
20260505003449 73 240 0.0 4.3 0.00 0.00 0.00 59 1010.4
20260505002503 73 205 0.9 4.3 0.00 0.00 0.00 60 1010.4
20260505001521 74 300 0.9 4.3 0.00 0.00 0.00 59 1010.4
20260505000533 73 200 1.7 7.0 0.00 0.00 0.00 58 1010.5
20260504234343 74 197 0.0 5.2 0.00 0.00 0.00 58 1010.7
20260504233317 73 166 0.9 5.2 0.00 0.00 0.00 58 1010.8
20260504232314 73 294 0.9 5.2 0.00 0.00 0.00 59 1010.9
20260504231259 73 224 0.9 5.2 0.00 0.00 0.00 59 1011.0
20260504230252 73 283 0.9 6.1 0.00 0.00 0.00 57 1011.1
20260504225227 72 197 1.7 6.1 0.00 0.00 0.00 59 1011.1
20260504224206 72 240 0.9 6.1 0.00 0.00 0.00 59 1011.3
20260504223143 72 275 1.7 7.0 0.00 0.00 0.00 59 1011.4
20260504222149 72 159 0.9 7.0 0.00 0.00 0.00 59 1011.5
20260504221148 72 207 1.7 5.2 0.00 0.00 0.00 59 1011.5
20260504220205 72 238 1.7 5.2 0.00 0.00 0.00 58 1011.7
20260504215207 72 147 0.9 5.2 0.00 0.00 0.00 59 1011.8
20260504214155 71 173 0.9 5.2 0.00 0.00 0.00 59 1011.9
20260504213130 71 32 0.9 2.6 0.00 0.00 0.00 60 1012.0
20260504212130 70 154 0.9 4.3 0.00 0.00 0.00 61 1012.1
20260504211110 70 167 0.9 4.3 0.00 0.00 0.00 60 1012.3
20260504210125 70 169 0.9 4.3 0.00 0.00 0.00 63 1012.4
20260504205149 69 220 0.0 3.5 0.00 0.00 0.00 62 1012.5
20260504204148 68 225 0.9 3.5 0.00 0.00 0.00 62 1012.7
20260504203156 68 295 0.9 6.1 0.00 0.00 0.00 63 1012.8
20260504202152 67 122 1.7 6.1 0.00 0.00 0.00 65 1012.8
20260504200019 66 74 1.7 4.3 0.00 0.00 0.00 65 1012.9
20260504195009 65 162 0.9 5.2 0.00 0.00 0.00 67 1013.0
20260504193959 65 214 1.7 8.7 0.00 0.00 0.00 67 1013.0
20260504193016 63 201 2.6 8.7 0.00 0.00 0.00 70 1013.0
20260504192036 63 278 0.9 3.5 0.00 0.00 0.00 70 1013.1
20260504185908 62 164 0.9 7.0 0.00 0.00 0.00 73 1013.3
20260504184918 61 161 1.7 7.0 0.00 0.00 0.00 73 1013.4
20260504182656 60 132 2.6 6.1 0.00 0.00 0.00 76 1013.3
20260504180449 60 238 0.9 7.8 0.00 0.00 0.00 76 1013.3
20260504175424 59 235 1.7 4.3 0.00 0.00 0.00 76 1013.4
20260504174357 59 184 1.7 6.1 0.00 0.00 0.00 77 1013.4
20260504173324 59 190 2.6 6.1 0.00 0.00 0.00 77 1013.3
20260504172314 59 157 1.7 6.1 0.00 0.00 0.00 77 1013.3
20260504170243 59 157 0.9 4.3 0.00 0.00 0.00 77 1013.3
20260504160137 56 231 0.9 3.5 0.00 0.00 0.00 80 1013.3
20260504150114 55 156 1.7 7.0 0.00 0.00 0.00 83 1013.0